Regional Weather Roundup
Issued by NWS

Home | Current Version | Previous Version | Graphics & Text | Print | Product List | Glossary On
Versions: 1 2 3 4 5 6 7 8 9 10 11 12 13 14 15 16 17 18 19 20 21 22 23 24 25 26 27 28 29 30 31 32 33 34 35 36 37 38 39 40 41 42 43 44 45 46 47 48 49 50
138
ASUS43 KFSD 221602
RWRSD

WEATHER ROUNDUP FOR SOUTH DAKOTA
NATIONAL WEATHER SERVICE SIOUX FALLS SD
1000 AM CST MON JAN 22 2018

NOTE: "FAIR" INDICATES FEW OR NO CLOUDS BELOW 12,000 FEET WITH NO
SIGNIFICANT WEATHER AND/OR OBSTRUCTIONS TO VISIBILITY.


SDZ001>005-009-010-012>017-221700-
NORTHWEST AND NORTH CENTRAL SOUTH DAKOTA

CITY           SKY/WX    TMP DP  RH WIND       PRES   REMARKS
BUFFALO          N/A     19  12  74 NW14      29.91R WCI   6
FAITH            N/A     22  16  78 NW12      29.97F WCI  10
MOBRIDGE       FOG       22  19  89 N8        29.99R VSB 1/2 WCI  12
$$

SDZ012>016-024>037-041>051-057-063-072>074-221700-
SOUTHWEST AND SOUTH CENTRAL SOUTH DAKOTA

CITY           SKY/WX    TMP DP  RH WIND       PRES   REMARKS
RAPID CTY ARPT SUNNY     29  17  61 W6        29.98S WCI  23
PIERRE         CLOUDY    22  21  96 NW12      29.98F FOG     WCI  10
CUSTER         MOSUNNY   20   8  60 CALM      29.91S
ELLSWORTH AFB  SUNNY     32  15  49 N7        29.96F WCI  25
PHILIP         SUNNY     21  17  84 W10       30.00R WCI  10
PINE RIDGE     MOSUNNY   17  12  80 CALM      30.00R
SPEARFISH        N/A     27  12  54 W13       29.97S WCI  16
WINNER         LGT SNOW  24  21  88 NW24G32   29.89F FOG     WCI   8
$$

SDZ004>011-016>023-039-040-221700-
NORTHEAST SOUTH DAKOTA

CITY           SKY/WX    TMP DP  RH WIND       PRES   REMARKS
ABERDEEN       CLOUDY    22  21  96 N20G28    29.97F WCI   7
WATERTOWN      CLOUDY    23  23 100 N28G33    29.83S FOG     WCI   6
BROOKINGS      LGT SNOW  24  22  91 N20G29    29.77F FOG     WCI  10
SISSETON         N/A     25  24  96 N20       29.93F WCI  11
$$

SDZ017-020-022-023-036>040-048>070-221700-
SOUTHEAST SOUTH DAKOTA

CITY           SKY/WX    TMP DP  RH WIND       PRES   REMARKS
SIOUX FALLS    LGT SNOW  26  24  92 N23G40    29.72R VSB 1   WCI  11
HURON          CLOUDY    22  21  96 N22G36    29.89R FOG     WCI   6
CHAMBERLAIN    CLOUDY    25  25  99 NW18G25   29.90R FOG     WCI  11
MITCHELL       MIX PCPN  24  21  88 N29G36    29.87R FOG     WCI   7
YANKTON        HVY SNOW  25  24  96 MISG      29.72R VSB 1/4
$$

ABBREVIATIONS USED IN REMARKS
   TC - TEMPERATURE IN CELSIUS
  WCI - WIND CHILL INDEX
   HX - HEAT INDEX
  VSB - VISIBILITY





USA.gov is the U.S. government's official web portal to all federal, state and local government web resources and services.